EDT,Max TemperatureF,Mean TemperatureF,Min TemperatureF,Max Dew PointF,MeanDew PointF,Min DewpointF,Max Humidity, Mean Humidity, Min Humidity, Max Sea Level PressureIn, Mean Sea Level PressureIn, Min Sea Level PressureIn, Max VisibilityMiles, Mean VisibilityMiles, Min VisibilityMiles, Max Wind SpeedMPH, Mean Wind SpeedMPH, Max Gust SpeedMPH,PrecipitationIn, CloudCover, Events, WindDirDegrees
2012-4-1,76,64,51,63,55,52,100,79,57,29.90,29.84,29.76,10,5,0,17,2,22,T,3,Fog-Rain-Thunderstorm,26
2012-4-2,83,70,57,65,61,55,100,76,51,29.89,29.82,29.75,10,8,1,23,6,28,0.61,4,Rain-Thunderstorm,180
2012-4-3,82,70,58,65,61,58,100,76,51,29.98,29.90,29.84,10,5,0,16,4,20,0.02,3,Fog-Rain-Thunderstorm,49
2012-4-4,80,68,56,61,58,55,97,73,48,29.89,29.80,29.67,10,7,1,14,5,17,0.00,2,Thunderstorm,194
2012-4-5,77,66,54,62,57,53,100,77,53,29.77,29.69,29.62,10,7,1,15,6,20,2.12,6,Rain-Thunderstorm,342
2012-4-6,67,59,50,53,41,31,100,65,29,30.11,29.92,29.76,10,10,5,17,10,23,0.03,4,Rain,22
2012-4-7,71,57,43,43,36,33,70,48,26,30.27,30.19,30.14,10,10,10,12,4,,0.00,0,,6
2012-4-8,74,60,46,49,42,32,86,60,33,30.20,30.14,30.07,10,10,8,16,4,24,0.00,3,,276
2012-4-9,72,58,43,43,37,31,83,53,22,30.12,30.07,29.98,10,10,10,22,7,26,0.00,0,,242
2012-4-10,68,58,47,42,36,23,76,51,26,30.04,29.99,29.92,10,10,10,24,10,31,T,2,,240
2012-4-11,59,47,35,32,25,21,76,51,25,30.21,30.11,30.04,10,10,10,17,8,29,0.00,0,,329
2012-4-12,62,48,33,34,27,21,70,46,21,30.27,30.20,30.12,10,10,10,16,5,20,0.00,0,,36
2012-4-13,69,52,35,40,34,28,85,54,22,30.23,30.19,30.16,10,10,10,8,2,15,0.00,0,,348
2012-4-14,78,62,45,50,45,40,86,61,35,30.25,30.17,30.09,10,10,9,17,5,23,0.00,2,,230
2012-4-15,81,66,50,57,51,44,83,61,39,30.16,30.09,30.05,10,10,10,28,9,33,0.00,1,,221
2012-4-16,80,72,63,61,59,54,87,68,49,30.18,30.10,30.03,10,10,10,30,13,39,T,3,Rain,227
2012-4-17,71,64,56,60,54,47,87,72,57,30.21,30.17,30.12,10,10,9,18,8,23,T,7,Rain,13
2012-4-18,61,57,53,55,53,49,93,88,83,30.12,30.08,30.05,10,8,1,10,5,15,0.20,8,Rain,41
2012-4-19,74,63,52,56,53,50,100,73,46,30.08,30.02,29.92,10,8,2,12,5,15,0.00,5,,18
2012-4-20,75,63,51,56,54,51,100,73,46,29.95,29.88,29.80,10,9,4,18,5,23,0.00,4,,212
2012-4-21,70,63,55,59,53,46,93,74,55,29.84,29.79,29.76,10,10,7,16,7,22,T,7,,333
2012-4-22,56,51,45,48,40,32,83,67,51,29.83,29.77,29.72,10,10,10,21,9,28,0.00,8,,350
2012-4-23,59,50,40,33,26,18,60,41,21,29.85,29.80,29.77,10,10,10,21,11,31,0.00,5,,308
2012-4-24,64,51,38,48,36,28,73,53,32,29.89,29.85,29.81,10,10,10,24,9,37,0.03,6,Rain,230
2012-4-25,80,65,49,63,54,48,100,71,42,29.90,29.83,29.77,10,9,2,24,7,31,0.14,4,Rain-Thunderstorm,229
2012-4-26,71,65,59,64,59,54,93,75,57,29.91,29.84,29.76,10,9,1,28,13,41,0.49,7,Rain-Hail-Thunderstorm,222
2012-4-27,76,68,59,64,54,49,100,71,41,30.06,30.00,29.91,10,9,4,13,6,16,0.00,4,,12
2012-4-28,83,69,55,64,55,49,86,63,40,30.08,30.02,29.96,10,10,10,20,6,24,0.00,3,,258
2012-4-29,84,72,59,63,59,56,87,65,43,30.14,30.09,30.05,10,10,9,8,2,14,0.00,1,,246
2012-4-30,86,73,60,63,59,54,97,66,34,30.14,30.07,30.01,10,10,6,18,7,25,0.00,0,,222